Location: Dal�� Lhota
(48.7500°N, 14.0167°E)
Time: 07:39:27
(UTC+00:00)

Transit 2A - Pass Details

Date: 27 July 2021
Orbit: 594 x 964 km, 66.7° (Epoch: 24 September)

Event Time Altitude Azimuth Distance (km) Brightness Sun altitude
Rises 08:04:53 0° 249° (WSW) 2,856 8.6 42.5°
Reaches altitude 10° 08:07:21 10° 262° (W) 1,983 7.9 42.9°
Maximum altitude 08:11:10 27° 322° (NW) 1,233 7.0 43.5°
Drops below altitude 10° 08:15:16 10° 21° (NNE) 2,133 8.4 44.1°
Sets 08:18:01 0° 33° (NNE) 3,118 9.2 44.5°
